Overview Statistics Trail Chart Weather Telemetry Raw packets
 

This is the latest recevied weather packets stored in our database for station/object NK7E-2. If no packets are shown the sender has not sent any weather packets the latest 10 day(s).

<< 35 36 37 38 39 40 41 >>
Time Temp. Humidity Pressure Rain* Wind** Luminosity Snow
1787918416 30° C 34% 1030.3 hPa 0 mm - - -
1787917816 30° C 33% 1030.2 hPa 0 mm - - -
1787917216 30.56° C 32% 1030.2 hPa 0 mm - - -
1787916616 30.56° C 32% 1030.1 hPa 0 mm - - -
1787916016 30.56° C 32% 1030.5 hPa 0 mm - - -
1787915416 30.56° C 33% 1030.3 hPa 0 mm - - -
1787914816 30° C 33% 1030.3 hPa 0 mm - - -
1787914216 30° C 34% 1030.3 hPa 0 mm - - -
1787913616 28.89° C 36% 1030.1 hPa 0 mm - - -
1787913016 29.44° C 37% 1030.3 hPa 0 mm - - -
1787912416 29.44° C 37% 1030.1 hPa 0 mm - - -
1787911816 28.89° C 39% 1029.8 hPa 0 mm - - -
1787911216 28.89° C 41% 1029.8 hPa 0 mm - - -
1787910616 28.89° C 40% 1029.8 hPa 0 mm - - -
1787910016 28.89° C 41% 1029.7 hPa 0 mm - - -
1787909416 28.33° C 43% 1029.8 hPa 0 mm - - -
1787908816 28.89° C 41% 1029.8 hPa 0 mm - - -
1787908216 28.89° C 37% 1029.7 hPa 0 mm - - -
1787907616 29.44° C 36% 1030 hPa 0 mm - - -
1787907016 30° C 35% 1030.4 hPa 0 mm - - -
1787906416 30° C 34% 1030.3 hPa 0 mm - - -
1787905816 30° C 35% 1029.9 hPa 0 mm - - -
1787905216 30° C 35% 1029.9 hPa 0 mm - - -
1787904616 30° C 34% 1029.8 hPa 0 mm - - -
1787904016 30° C 35% 1029.9 hPa 0 mm - - -

* Rain latest hour (hover to see other rain measurements)
** Current wind speed in m/s (hover to see current wind gust speed)